Powrót do katalogu

OPS 4682 DEB

AktywnyPO
NORAD 38395·DEBRIS·🇺🇸 United States

Wystrzelony Apr 3, 1965 z Vandenberg Space Force Base

Loading…

Następne Przeloty (najbliższe 24 godziny)

TLE

ŚwieżeSource: Space-Track

Epoka: Sep 13, 2026, 18:35 UTC

1 38395U 65027CY  26256.77434928  .00000120  00000-0  38156-3 0  9992
2 38395  90.2634  20.4351 0030680 105.3077 255.1438 12.98527430106487

Śledź OPS 4682 DEB w czasie rzeczywistym z AllMySat

Download on the App Store